Wind_Speed
25 24 23 22 20 16 12 11 8 33 36 36 32 32 31 27 26 34 28 21 23 23 28 28 28 29 29 29 29 29 27 26 27 25 25 23 23 23 20 18 17 17 18 18 17 16 15 15 15
25 25 25 25 21 18 9 7 23 39 41 32 29 31 31 30 30 30 29 23 27 25 28 27 30 30 30 29 29 29 29 30 30 30 28 27 27 26 24 22 19 17 18 19 18 17 16 15 15
24 25 25 27 21 18 16 12 29 43 40 33 32 32 30 29 28 26 26 29 29 27 26 27 28 29 30 31 30 30 30 30 31 30 30 30 29 27 25 23 22 19 18 19 20 19 18 17 16
24 25 26 27 21 20 24 21 36 41 39 35 32 31 29 25 27 23 23 28 28 28 28 27 28 28 30 31 32 32 32 32 31 31 31 30 28 26 24 23 22 22 21 20 20 21 20 18 18
24 25 27 27 22 20 22 26 39 32 34 34 31 29 29 28 26 24 22 27 29 29 27 28 29 29 31 32 32 32 33 33 33 32 30 28 27 26 24 22 22 22 23 24 23 21 21 19 18
24 25 28 27 24 21 22 23 40 38 35 34 34 33 30 35 31 25 22 28 29 29 28 28 30 30 31 32 32 33 34 32 33 31 29 27 26 26 25 24 23 23 25 25 25 24 23 22 20
26 27 28 28 28 22 26 32 43 38 36 38 39 35 31 36 41 27 23 31 32 32 31 28 29 30 31 32 33 33 33 32 33 31 30 28 26 26 29 28 27 28 26 25 26 24 24 24 23
27 30 29 28 26 24 27 36 46 37 36 43 43 37 35 40 40 30 30 33 33 33 36 34 32 32 32 33 34 34 34 35 34 32 31 30 29 29 30 32 30 30 29 26 27 25 23 24 24
27 30 30 23 27 29 28 39 40 38 44 42 49 42 41 42 42 36 35 35 38 34 37 37 37 35 34 35 35 36 36 37 35 34 33 30 31 33 33 34 33 33 31 29 26 26 26 23 23
29 32 27 28 28 32 33 34 37 37 44 43 47 45 48 45 44 41 39 38 40 40 36 39 39 37 37 37 37 38 38 38 38 37 34 32 32 35 36 35 35 35 33 32 30 26 25 26 25
34 32 30 30 34 38 35 32 37 38 40 42 46 46 49 47 43 41 41 42 42 42 38 40 41 41 41 40 40 40 40 40 40 39 36 34 33 34 35 34 35 36 35 35 33 29 26 25 25
38 39 39 37 37 40 42 37 38 39 41 46 42 44 48 46 46 42 41 41 43 43 41 39 41 42 43 44 42 41 41 42 41 41 39 36 34 35 34 36 34 37 37 36 35 35 32 27 26
44 46 47 47 47 46 50 47 42 42 44 46 45 47 47 48 45 49 45 43 44 45 42 43 41 41 43 44 42 42 42 43 42 44 41 39 37 37 38 37 39 37 40 38 39 36 36 33 29
53 53 54 55 58 58 54 53 49 47 46 47 48 49 51 51 47 50 51 49 49 44 44 45 45 45 46 45 47 45 44 44 43 44 43 40 39 38 37 40 40 43 39 39 39 40 38 37 32
57 60 59 59 61 60 63 62 58 51 50 49 51 52 52 50 50 51 54 53 49 49 46 43 47 47 46 46 48 48 46 46 44 45 46 43 42 39 37 39 40 40 38 38 40 41 42 42 38
62 66 69 62 64 64 67 63 58 56 57 54 53 50 51 49 48 50 49 49 50 47 45 43 42 44 45 45 46 47 47 47 47 46 45 45 44 44 41 42 41 44 44 41 39 41 43 44 42
70 74 73 72 68 67 67 71 63 57 55 59 61 49 47 50 51 53 51 48 49 49 43 42 41 40 41 44 45 46 46 47 46 46 47 48 44 46 44 43 41 45 48 45 43 44 45 47 45
70 74 75 76 71 68 70 57 69 65 62 63 64 55 50 50 53 52 51 50 48 45 41 40 41 40 40 43 44 45 46 46 45 45 45 46 46 46 48 47 45 46 46 47 47 44 46 48 49
74 75 78 78 76 70 56 53 44 50 63 64 66 59 53 48 55 54 51 45 45 44 40 39 39 40 41 42 42 43 42 42 42 43 45 47 48 47 49 48 49 46 52 54 48 47 47 49 50
65 69 71 65 66 58 57 66 59 49 55 54 61 55 54 48 53 55 49 45 46 44 42 41 40 41 40 41 41 40 40 40 41 44 45 48 50 49 50 51 53 55 64 64 53 50 45 48 49
50 55 49 53 49 55 65 60 62 56 58 50 48 48 45 54 59 56 48 47 48 46 43 42 41 40 41 41 41 40 41 40 44 47 50 51 53 56 57 59 60 58 69 63 50 55 51 50 54
49 46 48 49 51 40 51 61 56 61 65 45 39 36 48 60 54 51 48 48 47 45 44 42 41 41 41 41 42 42 43 44 48 51 53 55 57 59 63 65 68 66 66 67 64 48 47 43 44
45 45 42 45 51 52 46 52 54 48 37 40 37 47 52 55 54 45 46 46 45 43 42 43 44 42 40 40 41 42 43 43 46 50 54 60 64 66 70 69 72 72 69 71 69 67 55 54 47
39 37 37 45 39 46 37 45 40 22 27 36 48 59 51 44 40 44 44 44 42 41 42 43 42 40 40 41 42 43 41 44 47 53 60 61 59 58 60 54 57 64 64 67 65 69 68 50 49
30 31 40 40 34 29 24 23 39 38 32 37 40 34 36 39 40 41 41 44 42 43 42 41 42 41 41 41 41 40 40 46 52 56 55 54 50 54 55 60 45 46 46 49 52 54 51 49 47
28 31 33 30 28 26 24 24 27 33 30 36 32 35 44 26 31 35 38 39 40 41 42 42 43 39 37 38 40 41 44 50 53 51 46 48 49 51 45 29 34 40 42 43 51 53 50 53 49
27 26 20 21 17 14 17 17 27 18 30 35 35 41 29 32 28 35 37 39 43 43 44 43 39 36 36 37 39 40 44 50 47 44 46 42 44 42 41 38 41 46 42 43 48 56 55 51 56
24 19 16 18 18 21 16 15 21 30 27 32 38 46 39 36 45 39 37 41 42 42 43 42 38 35 37 38 36 41 45 44 41 41 43 40 37 36 39 42 43 42 42 42 43 51 48 49 50
30 23 20 20 21 20 18 17 17 18 32 33 31 32 35 39 37 39 42 42 43 42 42 39 37 35 36 35 36 40 44 39 39 39 36 36 33 37 39 41 39 41 38 40 41 42 43 35 47
26 25 20 24 22 17 26 27 19 25 31 21 32 34 39 36 37 38 43 43 42 41 39 38 38 36 35 36 40 40 43 38 38 37 33 29 32 35 41 39 37 36 34 32 36 39 39 40 42
Wind_Direction
267 267 262 257 254 256 252 272 294 259 251 254 261 263 266 270 260 257 270 281 268 253 256 258 263 266 268 272 276 278 281 283 284 285 289 295 300 301 300 293 283 278 278 282 287 296 303 310 314
269 265 262 261 255 249 210 316 237 249 257 259 259 261 263 264 266 268 276 267 265 261 256 256 259 263 267 271 272 277 278 279 282 286 290 294 296 298 298 293 282 274 271 274 278 285 295 301 307
269 266 265 262 260 252 224 260 254 263 265 267 265 262 265 263 268 271 267 266 268 266 263 264 263 263 264 267 271 272 275 278 283 285 288 290 291 292 292 290 288 284 279 277 274 277 281 290 297
269 269 269 268 262 252 235 212 265 246 263 267 264 269 265 266 264 259 265 266 268 268 268 264 263 264 265 267 270 274 277 278 280 283 284 286 287 285 286 286 286 287 287 278 272 272 272 278 287
264 268 265 266 265 251 250 253 259 260 262 263 257 259 263 257 256 262 262 265 268 269 270 269 268 263 263 263 267 270 272 276 279 279 282 284 282 280 281 281 278 278 283 284 278 271 271 274 282
266 265 267 267 262 246 242 264 258 256 257 260 263 259 260 269 261 247 262 265 268 269 266 267 268 266 266 267 267 269 271 274 277 280 281 281 279 280 280 280 278 276 281 284 283 280 276 272 279
270 268 266 265 265 257 251 242 255 256 254 261 256 260 265 267 265 260 258 264 263 268 268 263 265 265 264 265 267 268 270 271 273 274 275 276 277 276 277 279 280 280 285 282 282 283 281 279 277
272 271 275 276 278 264 253 251 256 263 250 260 261 260 261 261 267 268 259 264 265 265 267 265 263 264 265 265 265 266 267 268 270 273 275 275 276 276 277 280 280 283 285 284 281 277 275 275 278
277 280 279 283 274 270 257 253 257 264 261 255 263 263 262 262 264 264 264 267 268 266 266 267 265 263 263 265 266 267 268 268 269 271 272 274 275 276 277 281 284 286 284 283 282 279 274 271 272
290 286 294 281 273 270 266 263 268 261 262 262 259 264 262 259 263 267 269 271 271 269 266 269 268 266 263 265 267 267 266 266 266 268 270 271 271 273 276 280 282 284 282 281 282 282 282 278 271
290 293 294 292 281 276 273 267 269 268 267 265 266 268 263 264 262 263 266 270 271 268 267 265 268 268 268 266 267 267 267 267 267 268 268 268 268 268 270 273 278 278 278 275 275 279 278 278 274
288 291 292 292 288 284 286 274 264 267 268 268 268 266 267 268 268 265 263 266 266 267 265 264 265 266 267 268 267 268 269 268 268 268 267 267 266 265 265 266 268 274 275 276 276 275 275 274 275
286 287 286 286 285 287 291 285 279 269 264 267 269 266 265 265 268 269 268 263 262 264 267 268 266 264 264 265 265 266 266 267 267 268 269 269 269 268 267 267 269 269 272 272 273 274 275 276 274
284 285 284 284 284 283 281 282 282 281 270 268 267 266 267 266 266 268 268 266 263 265 266 265 266 264 263 262 263 263 261 263 264 266 269 267 267 266 267 266 266 266 267 269 269 273 275 275 277
287 286 287 285 279 279 272 277 281 277 270 268 266 265 265 267 266 266 265 267 270 267 265 265 263 265 263 261 263 265 265 264 264 264 268 270 271 268 265 266 267 263 260 263 268 269 272 273 274
286 285 287 283 277 278 271 277 274 272 269 265 266 266 265 263 264 264 265 267 267 267 268 266 262 262 263 264 265 265 266 266 266 267 270 270 270 271 268 267 262 262 265 264 268 271 269 273 274
288 289 285 287 276 271 271 272 269 267 266 266 266 259 262 261 261 262 264 267 268 268 265 265 264 262 261 262 262 263 265 265 266 267 268 269 267 265 267 264 261 262 264 261 266 270 268 269 272
282 278 277 280 272 266 266 275 263 266 268 261 262 263 258 260 260 262 262 266 266 262 262 264 264 263 260 260 260 260 261 262 264 264 265 268 267 265 266 264 261 259 260 259 259 267 266 267 269
277 272 267 267 262 262 251 255 255 259 258 261 260 260 260 257 258 259 263 266 259 259 262 263 264 263 262 262 261 261 260 260 261 263 264 264 266 267 260 264 265 262 261 259 257 259 261 262 264
278 275 273 274 269 267 258 253 246 248 252 256 259 260 258 250 256 257 259 259 257 258 262 265 265 263 263 262 264 265 266 265 265 264 263 263 265 265 265 264 262 262 264 261 256 259 254 256 261
281 282 282 275 267 262 259 256 248 252 248 241 248 254 254 256 256 256 257 255 253 258 261 264 264 264 264 265 266 266 267 267 269 269 268 268 267 267 264 263 260 260 263 241 240 247 245 256 259
280 284 277 273 261 272 263 263 255 248 253 254 239 235 227 252 260 257 254 253 254 257 261 262 263 263 262 264 267 268 270 268 268 267 269 269 268 268 266 262 259 257 255 255 255 238 239 248 253
283 278 280 278 274 281 280 256 261 244 248 241 222 225 226 246 254 254 252 254 255 256 258 260 261 261 262 263 267 271 274 273 274 274 273 272 270 270 264 260 254 250 250 250 251 255 246 246 250
281 282 277 278 270 277 282 251 251 212 231 218 217 230 244 253 248 248 250 252 253 257 259 261 263 265 267 270 272 274 275 276 276 278 278 276 274 275 268 256 251 248 246 248 248 245 252 237 246
282 283 290 276 266 285 283 250 229 213 211 218 226 239 248 249 242 245 249 253 255 256 260 262 263 263 268 271 274 277 277 280 282 281 275 273 271 268 273 249 247 250 250 249 248 250 238 254 245
281 294 284 269 287 275 275 241 238 227 217 216 214 212 242 251 246 250 251 254 257 259 260 261 261 265 269 271 277 276 279 283 285 280 276 274 271 271 269 262 245 248 248 243 242 238 242 239 250
282 293 276 280 247 246 241 244 226 188 232 230 215 221 212 226 242 245 250 255 257 260 262 264 266 269 269 273 276 281 290 288 282 277 281 274 270 262 258 248 241 243 246 245 238 237 236 237 242
282 276 246 266 228 249 249 270 242 234 238 232 219 228 255 263 264 258 255 255 258 261 263 265 268 265 269 272 275 282 295 289 284 280 282 278 269 254 244 239 234 239 242 237 239 242 241 239 240
285 282 259 240 249 239 241 239 228 244 238 229 235 242 252 257 266 265 260 258 259 262 264 266 265 266 264 271 276 285 295 283 288 285 280 278 262 252 243 237 238 242 239 240 242 241 240 239 238
270 260 226 235 240 240 245 245 244 236 177 191 221 231 247 247 264 269 268 263 260 260 262 263 265 264 265 269 276 284 288 284 287 284 275 281 268 254 241 236 234 235 235 248 241 238 240 241 252
Height
5841 5841 5841 5841 5845 5845 5846 5849 5849 5843 5843 5840 5844 5846 5846 5847 5846 5842 5839 5847 5846 5848 5848 5850 5850 5851 5851 5851 5851 5851 5851 5850 5850 5850 5850 5850 5849 5849 5849 5848 5848 5849 5850 5850 5850 5851 5850 5850 5850
5836 5836 5837 5837 5840 5839 5844 5848 5843 5834 5831 5837 5841 5840 5841 5842 5841 5841 5839 5843 5840 5843 5843 5845 5845 5846 5846 5845 5846 5846 5846 5845 5845 5845 5846 5846 5845 5845 5844 5844 5844 5844 5845 5846 5847 5847 5848 5847 5847
5830 5831 5832 5832 5835 5837 5838 5839 5837 5829 5831 5833 5835 5835 5835 5835 5837 5837 5839 5836 5836 5838 5840 5841 5840 5841 5841 5840 5841 5841 5842 5842 5841 5841 5842 5842 5842 5841 5840 5841 5841 5842 5841 5842 5843 5844 5844 5844 5844
5824 5825 5827 5826 5830 5833 5831 5831 5825 5826 5826 5828 5829 5829 5830 5832 5830 5833 5835 5832 5833 5833 5834 5836 5836 5835 5835 5836 5836 5836 5836 5837 5837 5838 5838 5838 5838 5838 5838 5838 5838 5838 5838 5838 5838 5839 5839 5839 5839
5818 5818 5819 5821 5825 5827 5828 5829 5819 5822 5821 5822 5824 5824 5823 5825 5826 5828 5830 5828 5828 5828 5829 5830 5830 5831 5831 5831 5831 5831 5831 5832 5832 5833 5833 5833 5833 5834 5834 5834 5834 5834 5834 5835 5835 5835 5835 5835 5835
5812 5812 5811 5814 5818 5821 5823 5823 5816 5815 5816 5817 5817 5818 5820 5817 5818 5823 5825 5823 5822 5822 5824 5824 5824 5825 5825 5826 5826 5826 5826 5826 5827 5828 5829 5829 5828 5828 5828 5829 5830 5830 5830 5831 5832 5832 5832 5832 5832
5806 5805 5805 5807 5809 5816 5816 5814 5807 5810 5811 5811 5809 5813 5816 5812 5806 5817 5820 5816 5816 5816 5817 5818 5818 5818 5819 5819 5820 5819 5820 5820 5821 5822 5822 5823 5823 5824 5823 5824 5824 5825 5826 5827 5827 5828 5828 5829 5828
5800 5798 5798 5802 5806 5807 5810 5807 5802 5806 5807 5804 5804 5808 5809 5804 5804 5811 5811 5810 5810 5811 5810 5811 5812 5812 5812 5813 5813 5813 5813 5814 5814 5815 5816 5817 5817 5818 5818 5819 5819 5820 5820 5821 5822 5823 5823 5824 5824
5794 5794 5792 5797 5797 5798 5802 5799 5798 5801 5797 5800 5795 5800 5801 5798 5798 5802 5803 5804 5802 5806 5803 5803 5805 5805 5805 5805 5806 5806 5807 5807 5807 5808 5810 5811 5812 5812 5812 5813 5813 5814 5815 5815 5816 5818 5818 5818 5818
5788 5786 5791 5789 5789 5789 5791 5793 5792 5792 5789 5792 5790 5791 5790 5792 5793 5793 5794 5795 5795 5795 5799 5796 5796 5798 5798 5799 5799 5799 5799 5800 5801 5801 5803 5804 5805 5806 5806 5806 5807 5808 5809 5810 5811 5812 5813 5814 5813
5781 5781 5783 5784 5782 5781 5783 5786 5785 5785 5785 5784 5783 5784 5781 5782 5786 5788 5787 5786 5785 5785 5789 5789 5788 5788 5790 5791 5792 5791 5792 5792 5793 5794 5796 5797 5798 5800 5801 5801 5801 5801 5802 5804 5804 5806 5807 5808 5808
5770 5773 5773 5776 5776 5773 5773 5776 5776 5777 5778 5775 5777 5776 5775 5775 5775 5778 5780 5779 5775 5774 5777 5782 5782 5780 5780 5780 5782 5783 5783 5784 5786 5786 5787 5790 5791 5792 5795 5794 5795 5795 5796 5797 5799 5799 5800 5802 5804
5763 5764 5765 5766 5766 5765 5763 5764 5767 5769 5766 5766 5768 5768 5767 5767 5768 5765 5767 5769 5768 5765 5768 5770 5774 5772 5773 5772 5773 5775 5776 5776 5778 5778 5779 5782 5784 5785 5786 5788 5788 5789 5789 5791 5791 5792 5793 5795 5796
5754 5755 5755 5756 5755 5754 5750 5753 5754 5759 5759 5759 5757 5757 5757 5757 5759 5757 5755 5756 5756 5760 5760 5759 5761 5763 5763 5765 5764 5765 5766 5767 5769 5770 5771 5773 5775 5776 5778 5779 5780 5781 5783 5784 5784 5784 5786 5788 5790
5744 5742 5744 5744 5741 5743 5734 5742 5744 5745 5744 5745 5746 5745 5745 5745 5746 5748 5746 5745 5748 5747 5749 5752 5750 5751 5754 5755 5755 5755 5756 5758 5759 5762 5763 5764 5766 5767 5770 5770 5772 5772 5774 5775 5776 5777 5778 5780 5782
5727 5726 5725 5738 5730 5732 5717 5731 5731 5731 5729 5731 5731 5734 5733 5734 5733 5733 5736 5738 5735 5737 5738 5741 5741 5742 5742 5744 5746 5747 5747 5748 5750 5752 5753 5756 5757 5757 5760 5761 5763 5764 5764 5766 5768 5767 5769 5771 5773
5712 5707 5708 5716 5716 5715 5707 5708 5717 5717 5715 5716 5717 5722 5721 5721 5720 5721 5724 5726 5728 5728 5729 5728 5730 5732 5734 5734 5735 5736 5737 5738 5739 5740 5742 5744 5747 5748 5748 5750 5753 5753 5753 5756 5757 5758 5760 5761 5763
5696 5689 5691 5694 5703 5695 5693 5692 5699 5700 5699 5703 5704 5706 5707 5708 5705 5709 5713 5716 5716 5718 5718 5719 5719 5719 5721 5723 5724 5725 5726 5727 5728 5730 5731 5732 5735 5737 5737 5739 5741 5743 5744 5744 5747 5747 5749 5751 5753
5673 5671 5667 5673 5678 5675 5677 5673 5680 5684 5686 5685 5690 5694 5695 5691 5691 5696 5701 5705 5706 5707 5707 5708 5708 5710 5711 5711 5713 5714 5716 5717 5719 5720 5722 5723 5723 5725 5726 5728 5729 5731 5730 5732 5735 5735 5739 5741 5742
5654 5652 5652 5654 5660 5663 5659 5660 5667 5668 5672 5674 5677 5679 5681 5675 5679 5682 5688 5691 5693 5696 5696 5697 5698 5699 5700 5702 5703 5704 5705 5707 5709 5709 5711 5712 5712 5715 5714 5716 5718 5717 5714 5715 5719 5725 5728 5730 5732
5644 5640 5644 5640 5643 5642 5639 5646 5655 5657 5657 5661 5663 5667 5664 5661 5664 5671 5677 5678 5680 5684 5685 5686 5687 5688 5690 5691 5692 5694 5695 5697 5697 5696 5696 5698 5700 5700 5702 5702 5703 5706 5702 5668 5700 5708 5715 5718 5720
5632 5634 5629 5631 5629 5628 5631 5624 5640 5646 5649 5650 5652 5654 5645 5647 5655 5662 5664 5666 5668 5671 5674 5675 5676 5679 5680 5681 5682 5683 5684 5685 5685 5684 5683 5683 5684 5684 5683 5685 5684 5688 5686 5691 5692 5686 5698 5703 5708
5623 5624 5622 5620 5619 5617 5625 5613 5629 5635 5635 5639 5640 5636 5634 5637 5647 5650 5653 5655 5658 5661 5663 5664 5666 5668 5669 5671 5671 5671 5672 5671 5671 5669 5668 5666 5665 5665 5663 5660 5660 5664 5669 5674 5678 5682 5687 5690 5697
5616 5616 5613 5610 5610 5606 5613 5607 5613 5618 5622 5625 5625 5620 5628 5631 5636 5639 5642 5645 5647 5649 5651 5653 5655 5656 5657 5658 5659 5660 5660 5659 5658 5654 5650 5648 5646 5647 5639 5639 5642 5648 5651 5659 5667 5670 5670 5678 5685
5611 5610 5605 5602 5601 5603 5601 5600 5603 5607 5610 5613 5611 5619 5621 5625 5626 5628 5631 5634 5636 5639 5641 5643 5646 5646 5645 5647 5647 5647 5647 5646 5644 5639 5634 5632 5634 5629 5625 5614 5629 5636 5638 5644 5651 5653 5647 5660 5669
5604 5602 5601 5597 5597 5597 5597 5599 5600 5604 5606 5601 5612 5611 5611 5616 5617 5621 5623 5625 5627 5628 5631 5634 5636 5635 5635 5636 5636 5635 5634 5632 5628 5624 5620 5619 5621 5614 5612 5607 5615 5625 5630 5633 5636 5641 5648 5655 5662
5597 5597 5597 5593 5593 5593 5593 5594 5598 5605 5596 5603 5605 5606 5604 5605 5608 5610 5613 5616 5618 5618 5620 5622 5623 5623 5624 5625 5625 5624 5622 5618 5614 5611 5608 5606 5605 5607 5602 5606 5611 5618 5620 5624 5629 5631 5639 5648 5654
5592 5592 5592 5590 5589 5591 5593 5593 5594 5596 5598 5599 5599 5598 5598 5599 5602 5604 5604 5606 5607 5608 5610 5612 5613 5613 5615 5615 5615 5614 5611 5606 5602 5600 5597 5595 5592 5593 5600 5603 5604 5607 5611 5616 5619 5623 5630 5636 5643
5584 5585 5585 5587 5589 5588 5590 5590 5589 5591 5585 5586 5591 5594 5596 5594 5593 5594 5596 5597 5600 5599 5601 5602 5603 5604 5606 5605 5604 5603 5600 5596 5592 5589 5587 5585 5583 5585 5589 5592 5594 5600 5605 5609 5612 5616 5621 5630 5635
5579 5579 5581 5583 5584 5582 5584 5588 5585 5582 5573 5575 5581 5584 5584 5586 5589 5588 5588 5590 5591 5589 5590 5592 5594 5596 5596 5595 5595 5594 5590 5587 5584 5581 5579 5577 5577 5577 5581 5584 5589 5592 5597 5602 5606 5610 5615 5622 5625